Stansted, United Kingdom

9:11 PM BST on August 24, 2016 (GMT +0100)
Stansted

Weather History for EGSS - December, 2012

Change the Weather History Date:

Friday, December 7, 2012

  Actual Average Record
Temperature  
Mean Temperature 37 °F -  
Max Temperature 41 °F 42 °F 55 °F (2007)
Min Temperature 33 °F 34 °F 21 °F (2010)
Degree Days  
Heating Degree Days 28    
Moisture  
Dew Point 34 °F    
Average Humidity 85    
Maximum Humidity 100    
Minimum Humidity 70    
Precipitation  
Precipitation 0.00 in - - ()
Sea Level Pressure  
Sea Level Pressure 29.55 in    
Wind  
Wind Speed 13 mph ()    
Max Wind Speed 21 mph    
Max Gust Speed 36 mph    
Visibility 5.9 miles    
Events Rain , Snow    
Averages and records for this station are not official NWS values.
T = Trace of Precipitation, MM = Missing Value Source: Averaged Metar Reports

Daily Weather History Graph

Daily Weather History Graph

Search for Another Location

Airport or City:

Trip Planner

Search our weather history database for the weather conditions in past years. The results will help you decide how hot, cold, wet, or windy it might be!

Date:

Astronomy

Dec. 07, 2012 Rise Set
Actual Time 7:52 AM GMT 3:48 PM GMT
Civil Twilight 7:12 AM GMT 4:29 PM GMT
Nautical Twilight 6:29 AM GMT 5:12 PM GMT
Astronomical Twilight 5:48 AM GMT 5:53 PM GMT
Moon 12:11 AM GMT (12/7) 12:17 PM GMT (12/7)
Length of Visible Light 9h 16m
Length of Day
7h 56m
Last Quarter, 41% of the Moon is Illuminated
Dec 7
Last Quarter
Dec 13
New
Dec 20
First Quarter
Dec 28
Full
Jan 5
Last Quarter

Hourly Weather History & Observations

Time (GMT) Temp. Windchill Dew Point Humidity Pressure Visibility Wind Dir Wind Speed Gust Speed Precip Events Conditions
12:20 AM 39.2 °F 29.8 °F 37.4 °F 93% 29.39 in 6.2 mi SW 18.4 mph - N/A Rain Light Rain
12:50 AM 39.2 °F 30.8 °F 37.4 °F 93% 29.39 in 6.2 mi WSW 15.0 mph - N/A Rain Light Rain
1:20 AM 39.2 °F 31.2 °F 37.4 °F 93% 29.39 in 6.2 mi West 13.8 mph - N/A Rain Light Rain
1:50 AM 39.2 °F 32.0 °F 35.6 °F 87% 29.39 in 6.2 mi West 11.5 mph - N/A   Mostly Cloudy
2:20 AM 37.4 °F 30.3 °F 35.6 °F 93% 29.39 in 6.2 mi West 10.4 mph - N/A   Mostly Cloudy
2:50 AM 39.2 °F 31.6 °F 35.6 °F 87% 29.39 in 6.2 mi West 12.7 mph - N/A   Mostly Cloudy
3:20 AM 37.4 °F 31.4 °F 33.8 °F 87% 29.39 in 6.2 mi West 8.1 mph - N/A   Mostly Cloudy
3:50 AM 37.4 °F 29.8 °F 33.8 °F 87% 29.39 in 6.2 mi West 11.5 mph - N/A   Scattered Clouds
4:20 AM 37.4 °F 29.8 °F 32.0 °F 81% 29.39 in - West 11.5 mph - N/A   Clear
4:50 AM 35.6 °F 28.0 °F 32.0 °F 87% 29.39 in 6.2 mi West 10.4 mph - N/A   Scattered Clouds
5:20 AM 35.6 °F 28.6 °F 32.0 °F 87% 29.39 in 6.2 mi West 9.2 mph - N/A   Partly Cloudy
5:50 AM 35.6 °F 27.1 °F 32.0 °F 87% 29.39 in 6.2 mi West 12.7 mph - N/A   Scattered Clouds
6:20 AM 35.6 °F 27.5 °F 32.0 °F 87% 29.39 in 6.2 mi West 11.5 mph - N/A   Mostly Cloudy
6:50 AM 35.6 °F 27.5 °F 32.0 °F 87% 29.39 in 6.2 mi West 11.5 mph - N/A   Mostly Cloudy
7:20 AM 35.6 °F 27.1 °F 32.0 °F 87% 29.39 in 6.2 mi West 12.7 mph - N/A Rain Light Rain
7:50 AM 35.6 °F 27.1 °F 33.8 °F 93% 29.39 in 3.1 mi West 12.7 mph - N/A Rain Light Rain
8:20 AM 35.6 °F 27.1 °F 33.8 °F 93% 29.39 in 3.7 mi West 12.7 mph - N/A Rain Light Rain
8:50 AM 35.6 °F 26.2 °F 33.8 °F 93% 29.42 in 3.7 mi WNW 15.0 mph 26.5 mph N/A Rain , Snow Light Rain
9:20 AM 33.8 °F 25.3 °F 32.0 °F 93% 29.42 in 1.4 mi WNW 11.5 mph - N/A Snow Light Snow
9:50 AM 33.8 °F 24.3 °F 33.8 °F 100% 29.42 in 5.0 mi NW 13.8 mph - N/A Rain Rain
10:20 AM 37.4 °F 27.2 °F 35.6 °F 93% 29.42 in 6.2 mi NW 19.6 mph - N/A   Mostly Cloudy
10:50 AM 39.2 °F 29.8 °F 35.6 °F 87% 29.44 in 6.2 mi NW 18.4 mph - N/A   Scattered Clouds
11:20 AM 39.2 °F 29.3 °F 35.6 °F 87% 29.44 in 6.2 mi NW 20.7 mph 33.4 mph N/A   Mostly Cloudy
11:50 AM 39.2 °F 29.3 °F 33.8 °F 81% 29.47 in 6.2 mi NW 20.7 mph - N/A   Overcast
12:20 PM 39.2 °F 29.6 °F 33.8 °F 81% 29.47 in 6.2 mi NW 19.6 mph - N/A   Scattered Clouds
12:50 PM 41.0 °F 31.9 °F 33.8 °F 76% 29.47 in 6.2 mi NW 19.6 mph 33.4 mph N/A   Overcast
1:20 PM 41.0 °F 31.9 °F 33.8 °F 76% 29.47 in 6.2 mi NW 19.6 mph 35.7 mph N/A   Mostly Cloudy
1:50 PM 41.0 °F 31.9 °F 33.8 °F 76% 29.50 in 6.2 mi NW 19.6 mph 32.2 mph N/A   Scattered Clouds
2:20 PM 41.0 °F 32.2 °F 32.0 °F 70% 29.53 in 6.2 mi NW 18.4 mph 31.1 mph N/A   Scattered Clouds
2:50 PM 41.0 °F 32.5 °F 32.0 °F 70% 29.53 in 6.2 mi NW 17.3 mph 28.8 mph N/A   Mostly Cloudy
3:20 PM 41.0 °F 32.8 °F 32.0 °F 70% 29.56 in 6.2 mi NW 16.1 mph - N/A   Mostly Cloudy
3:50 PM 41.0 °F 32.5 °F 32.0 °F 70% 29.59 in 6.2 mi NW 17.3 mph 28.8 mph N/A   Mostly Cloudy
4:20 PM 41.0 °F 32.5 °F 33.8 °F 76% 29.59 in 6.2 mi NW 17.3 mph - N/A   Mostly Cloudy
4:50 PM 39.2 °F 30.2 °F 33.8 °F 81% 29.62 in 6.2 mi NNW 17.3 mph - N/A   Mostly Cloudy
5:20 PM 39.2 °F 30.2 °F 33.8 °F 81% 29.65 in 6.2 mi NNW 17.3 mph - N/A   Mostly Cloudy
5:50 PM 39.2 °F 30.5 °F 33.8 °F 81% 29.68 in 6.2 mi NNW 16.1 mph - N/A   Mostly Cloudy
6:20 PM 39.2 °F 30.8 °F 35.6 °F 87% 29.71 in 6.2 mi NNW 15.0 mph - N/A   Overcast
6:50 PM 39.2 °F 30.8 °F 35.6 °F 87% 29.71 in 6.2 mi NNW 15.0 mph - N/A   Mostly Cloudy
7:20 PM 39.2 °F 30.2 °F 35.6 °F 87% 29.74 in 6.2 mi NNW 17.3 mph - N/A   Overcast
7:50 PM 39.2 °F 30.5 °F 35.6 °F 87% 29.77 in 6.2 mi NNW 16.1 mph - N/A Rain Light Rain Showers
8:20 PM 39.2 °F 31.2 °F 37.4 °F 93% 29.80 in 6.2 mi NNW 13.8 mph - N/A   Overcast
8:50 PM 39.2 °F 31.6 °F 35.6 °F 87% 29.83 in 6.2 mi North 12.7 mph - N/A   Mostly Cloudy
9:20 PM 39.2 °F 31.6 °F 35.6 °F 87% 29.86 in 6.2 mi North 12.7 mph - N/A   Overcast
9:50 PM 39.2 °F 31.6 °F 35.6 °F 87% 29.86 in 6.2 mi North 12.7 mph - N/A   Mostly Cloudy
10:20 PM 39.2 °F 31.6 °F 35.6 °F 87% 29.89 in 6.2 mi North 12.7 mph - N/A   Mostly Cloudy
10:50 PM 39.2 °F 31.6 °F 33.8 °F 81% 29.92 in 6.2 mi North 12.7 mph - N/A   Mostly Cloudy
11:20 PM 39.2 °F 32.5 °F 33.8 °F 81% 29.95 in 6.2 mi North 10.4 mph - N/A   Overcast
11:50 PM 39.2 °F 33.0 °F 33.8 °F 81% 29.98 in 6.2 mi North 9.2 mph - N/A   Overcast